Vorticity
14 9 8 7 8 5 3 11 10 8 8 7 4 6 6 6 3 1 4 16 15 11 9 9 7 5 5 7 9 7 6 7 6 6 6 4 4 7 7 5 6 5 5
9 12 9 8 11 13 18 14 9 9 6 4 4 4 5 4 2 3 9 14 11 9 5 7 9 7 7 6 7 7 7 6 7 7 7 7 6 7 8 6 5 6 7
24 13 9 9 15 12 13 11 10 12 6 3 3 4 4 5 6 7 11 6 11 10 4 4 6 7 7 7 6 6 7 8 7 7 6 7 6 5 5 6 6 6 5
10 4 -1 7 7 14 13 10 9 9 4 3 3 4 4 5 6 8 8 3 6 9 5 3 5 5 6 6 5 5 6 7 7 8 6 7 8 8 6 2 5 9 8
3 6 12 10 10 20 9 8 9 6 7 4 2 4 -0 5 6 9 3 3 2 3 6 4 4 1 5 5 4 5 6 7 6 7 6 7 8 8 13 18 18 12 7
7 8 12 -11 8 12 11 7 6 4 9 3 3 3 7 6 7 7 4 4 3 2 2 4 4 2 5 4 6 7 8 6 5 2 8 8 9 17 19 19 18 24 23
9 16 14 5 0 0 -4 9 9 8 6 5 12 6 1 3 4 7 3 7 5 5 4 3 3 4 3 4 6 6 5 8 6 4 6 16 18 21 10 9 -3 7 9
13 16 14 -15 -0 12 8 7 7 11 9 7 13 7 4 8 7 7 5 10 6 2 3 3 4 3 6 5 4 5 8 9 9 13 22 15 22 11 0 -11 6 -2 -3
-9 -24 -8 20 31 32 23 23 25 15 14 15 22 14 11 13 8 7 11 5 3 1 2 5 6 6 6 3 4 5 8 13 10 16 14 19 16 3 -2 14 7 3 1
13 20 19 10 1 1 6 9 11 12 9 6 15 12 19 15 13 11 10 7 2 3 1 1 0 4 4 5 3 14 19 11 -1 19 19 20 -4 1 5 -5 2 4 0
4 1 -10 1 0 6 12 11 6 3 15 11 15 4 7 18 16 15 12 6 3 4 2 3 3 5 4 5 9 16 1 6 26 11 17 6 -7 5 6 1 1 3 6
1 -3 1 -7 4 9 1 5 4 6 8 6 12 11 11 13 3 -0 5 32 12 5 8 8 2 2 2 5 8 22 19 22 23 11 7 7 -4 -6 2 3 3 7 7
17 -2 7 3 -6 10 15 5 5 5 2 5 1 2 4 14 11 14 16 12 11 15 10 8 5 6 18 16 11 16 5 18 19 5 1 -2 4 -2 2 6 9 8 8
9 5 9 9 15 4 7 11 10 5 5 4 6 9 7 7 7 12 14 10 6 30 31 32 22 11 8 22 26 9 11 21 2 9 2 1 4 3 -3 2 11 7 12
14 16 14 20 14 10 9 13 14 13 21 23 27 26 27 28 16 18 3 4 -7 7 13 13 13 15 23 9 20 11 21 9 6 4 5 4 3 2 6 13 8 11 13
14 17 18 7 23 26 26 26 23 26 25 18 8 23 8 22 6 13 0 0 15 25 13 13 9 8 11 39 23 12 36 3 0 10 4 1 3 8 4 17 8 11 9
28 22 20 18 10 11 7 17 20 17 20 14 15 15 13 21 6 18 22 2 1 12 10 4 4 37 31 21 14 21 7 2 6 2 7 0 6 7 20 9 9 10 10
9 12 14 19 19 17 23 31 13 8 24 11 11 -1 17 24 1 -1 -10 12 15 -14 -5 31 35 25 18 6 19 15 8 5 1 2 2 5 12 18 9 9 11 16 11
8 18 7 18 16 16 34 32 46 20 31 16 39 2 70 21 14 11 30 8 -7 31 32 17 12 1 4 9 -5 -3 -6 6 11 4 9 15 15 8 6 10 18 12 13
16 1 10 18 3 -3 -6 5 55 8 -11 19 31 36 31 6 1 24 14 17 38 17 15 9 21 -0 -2 7 17 17 14 2 6 8 11 14 7 4 7 17 13 12 12
9 5 16 5 -11 5 1 0 8 25 19 -12 37 37 57 47 51 31 19 12 12 18 18 23 26 24 26 22 16 11 5 9 10 13 10 5 6 7 11 15 14 13 13
10 4 0 6 1 4 7 -0 -1 3 10 21 3 42 11 9 13 9 22 38 24 11 2 1 7 -4 10 16 15 15 15 8 9 7 7 8 9 10 12 15 16 10 8
4 4 2 1 4 -3 0 -1 -1 2 1 -1 24 10 42 23 37 28 2 -6 8 -0 -0 5 9 13 14 12 11 9 7 8 9 8 7 7 10 8 11 16 13 8 9
11 1 3 3 7 4 2 4 4 1 -2 6 10 2 37 12 11 -1 3 13 5 -6 11 18 16 8 4 5 7 7 8 9 11 8 7 12 12 11 14 16 14 8 7
4 5 2 -0 1 6 5 8 6 3 5 4 2 18 31 35 5 -1 13 5 -24 15 20 9 2 10 6 5 8 7 6 8 11 15 16 12 13 12 9 16 16 8 5
7 4 0 6 6 12 13 6 2 -2 1 2 7 4 28 -19 29 36 10 0 15 -9 -4 -1 4 9 5 5 8 8 7 9 11 10 12 15 14 12 8 18 16 7 5
Height
5779 5777 5783 5783 5783 5783 5786 5787 5786 5785 5784 5783 5782 5783 5783 5784 5783 5783 5782 5781 5779 5779 5778 5777 5777 5777 5777 5777 5778 5778 5778 5777 5777 5776 5776 5776 5775 5774 5775 5773 5773 5773 5771
5775 5769 5766 5771 5775 5773 5774 5775 5775 5776 5775 5774 5773 5773 5775 5774 5773 5773 5773 5772 5771 5770 5770 5769 5769 5769 5769 5769 5769 5770 5769 5769 5768 5767 5766 5766 5766 5763 5762 5764 5763 5760 5757
5766 5764 5757 5758 5765 5763 5765 5766 5767 5768 5766 5765 5764 5764 5766 5764 5763 5763 5763 5763 5763 5762 5761 5760 5760 5760 5760 5760 5759 5760 5760 5759 5759 5758 5756 5754 5754 5752 5751 5753 5751 5748 5744
5753 5753 5749 5751 5755 5756 5754 5755 5756 5757 5757 5756 5756 5756 5756 5754 5753 5754 5754 5752 5753 5753 5752 5752 5751 5750 5750 5750 5749 5749 5749 5748 5747 5746 5745 5744 5742 5739 5739 5739 5739 5733 5731
5742 5743 5740 5741 5742 5747 5746 5746 5744 5744 5746 5745 5745 5746 5745 5744 5744 5744 5742 5742 5741 5742 5743 5742 5741 5740 5739 5739 5739 5738 5737 5737 5737 5735 5733 5732 5730 5726 5725 5723 5721 5717 5715
5735 5736 5735 5727 5734 5735 5740 5738 5735 5733 5734 5734 5734 5735 5733 5733 5734 5733 5731 5730 5731 5730 5730 5730 5730 5729 5728 5726 5726 5726 5726 5726 5724 5723 5722 5720 5719 5716 5714 5712 5710 5706 5703
5727 5726 5723 5721 5725 5725 5724 5728 5726 5724 5724 5724 5723 5722 5719 5722 5721 5721 5719 5719 5718 5718 5718 5719 5718 5717 5717 5715 5714 5713 5713 5713 5713 5711 5708 5707 5707 5706 5704 5702 5698 5694 5689
5716 5715 5713 5707 5709 5713 5712 5712 5712 5711 5710 5709 5711 5708 5706 5709 5708 5707 5705 5706 5705 5705 5704 5704 5705 5704 5703 5703 5701 5701 5700 5700 5698 5698 5697 5694 5694 5694 5692 5689 5685 5679 5673
5704 5704 5705 5703 5697 5693 5696 5699 5699 5697 5695 5694 5694 5693 5693 5693 5692 5693 5693 5693 5694 5693 5692 5691 5690 5690 5689 5688 5687 5686 5687 5687 5686 5684 5684 5683 5682 5681 5680 5678 5673 5667 5658
5688 5689 5689 5689 5691 5689 5686 5686 5685 5683 5682 5683 5681 5678 5677 5676 5677 5679 5679 5680 5679 5678 5677 5677 5677 5677 5676 5675 5675 5674 5674 5674 5674 5673 5673 5673 5672 5670 5668 5664 5659 5652 5646
5673 5677 5676 5673 5674 5673 5670 5670 5671 5669 5667 5668 5667 5666 5665 5664 5664 5664 5663 5663 5663 5663 5663 5663 5663 5663 5662 5662 5662 5663 5661 5661 5661 5661 5661 5661 5660 5658 5654 5649 5645 5640 5633
5656 5658 5660 5662 5658 5652 5655 5655 5655 5654 5651 5650 5651 5650 5650 5650 5649 5649 5649 5650 5650 5650 5650 5649 5649 5650 5649 5650 5649 5649 5649 5649 5649 5649 5649 5649 5647 5645 5641 5637 5633 5627 5620
5645 5646 5640 5640 5645 5638 5636 5637 5637 5637 5635 5633 5635 5633 5632 5634 5635 5635 5635 5634 5635 5636 5636 5636 5635 5636 5637 5636 5636 5637 5637 5636 5637 5638 5638 5636 5634 5632 5628 5625 5620 5615 5609
5634 5632 5619 5628 5629 5619 5615 5617 5616 5615 5613 5613 5614 5613 5613 5614 5616 5618 5620 5620 5620 5620 5621 5621 5621 5621 5621 5622 5622 5623 5625 5625 5625 5625 5626 5624 5623 5619 5618 5613 5608 5604 5600
5620 5614 5608 5613 5612 5604 5598 5596 5595 5594 5591 5589 5588 5588 5591 5594 5597 5600 5603 5604 5606 5607 5607 5607 5607 5606 5607 5608 5609 5610 5612 5613 5614 5614 5615 5613 5610 5609 5606 5602 5598 5594 5589
5606 5603 5597 5591 5590 5586 5580 5575 5574 5571 5568 5567 5567 5569 5574 5578 5580 5582 5585 5587 5590 5592 5592 5593 5592 5593 5592 5594 5596 5598 5599 5602 5603 5603 5603 5602 5600 5598 5594 5591 5588 5584 5580
5592 5587 5581 5575 5574 5569 5565 5561 5558 5556 5553 5551 5552 5553 5556 5559 5563 5566 5569 5572 5575 5577 5578 5579 5579 5578 5580 5582 5585 5586 5589 5590 5592 5593 5592 5591 5589 5588 5584 5581 5578 5574 5572
5579 5575 5570 5567 5562 5559 5554 5549 5547 5543 5540 5537 5537 5537 5538 5542 5547 5551 5554 5556 5560 5562 5565 5564 5564 5566 5569 5571 5574 5575 5579 5580 5581 5581 5581 5580 5579 5576 5574 5571 5568 5566 5564
5568 5566 5562 5559 5556 5552 5545 5540 5537 5534 5528 5523 5520 5520 5516 5524 5530 5533 5534 5540 5545 5546 5549 5552 5553 5557 5559 5561 5564 5566 5568 5569 5570 5570 5570 5568 5566 5564 5563 5562 5560 5558 5557
5559 5557 5554 5552 5549 5545 5540 5534 5529 5525 5520 5513 5508 5505 5506 5512 5516 5517 5522 5528 5531 5533 5538 5541 5544 5547 5549 5552 5554 5555 5556 5557 5558 5558 5557 5556 5555 5553 5553 5553 5551 5550 5550
5551 5549 5547 5545 5543 5540 5536 5530 5525 5520 5514 5510 5503 5499 5498 5501 5504 5507 5512 5517 5522 5525 5530 5533 5535 5538 5541 5543 5544 5545 5546 5548 5548 5548 5547 5546 5545 5544 5543 5543 5542 5541 5541
5543 5541 5540 5538 5536 5533 5530 5527 5522 5518 5512 5507 5504 5500 5499 5498 5499 5502 5506 5512 5515 5519 5523 5526 5528 5530 5532 5533 5534 5536 5538 5539 5538 5537 5537 5538 5535 5534 5533 5534 5534 5534 5533
5534 5534 5533 5531 5529 5526 5523 5520 5517 5514 5510 5506 5502 5500 5497 5496 5495 5499 5504 5508 5511 5513 5517 5520 5522 5523 5524 5525 5526 5528 5530 5529 5528 5529 5528 5526 5525 5524 5523 5524 5525 5525 5524
5526 5526 5525 5523 5521 5518 5515 5513 5511 5509 5506 5504 5501 5498 5498 5497 5497 5498 5502 5504 5507 5509 5511 5513 5514 5516 5517 5519 5519 5520 5519 5519 5520 5519 5518 5517 5515 5515 5515 5515 5515 5515 5514
5518 5518 5517 5514 5512 5509 5506 5502 5501 5501 5501 5499 5497 5496 5495 5494 5495 5497 5499 5501 5503 5505 5505 5507 5508 5510 5510 5510 5511 5511 5510 5511 5510 5508 5507 5506 5505 5505 5504 5505 5506 5505 5505
5509 5509 5508 5504 5501 5497 5494 5491 5489 5490 5491 5491 5491 5492 5492 5490 5492 5492 5494 5496 5497 5498 5500 5500 5501 5501 5502 5502 5502 5501 5501 5501 5499 5498 5497 5496 5496 5494 5494 5495 5495 5495 5494